Time,TemperatureF,DewpointF,PressureIn,WindDirection,WindDirectionDegrees,WindSpeedMPH,WindSpeedGustMPH,Humidity,HourlyPrecipIn,Conditions,Clouds,dailyrainin,SoftwareType,DateUTC
2013-01-13 00:00:00,33.6,32.3,29.78,NNW,342,5.0,12.0,95,0.01,,-RA,1.67,VWS V14.01,2013-01-13 06:00:00,
2013-01-13 00:05:00,33.6,32.3,29.81,North,355,1.0,6.0,95,0.01,,-RA,0.00,VWS V14.01,2013-01-13 06:05:00,
2013-01-13 00:10:00,33.7,32.4,29.81,WNW,303,2.0,11.0,95,0.01,,-RA,0.00,VWS V14.01,2013-01-13 06:10:00,
2013-01-13 00:15:00,33.6,32.3,29.80,NNW,329,4.0,11.0,95,0.01,,-RA,0.00,VWS V14.01,2013-01-13 06:15:00,
2013-01-13 00:20:00,33.6,32.3,29.79,NW,313,7.0,11.0,95,0.01,,-RA,0.00,VWS V14.01,2013-01-13 06:20:00,
2013-01-13 00:26:00,33.6,32.3,29.79,NNW,327,2.0,11.0,95,0.01,,-RA,0.00,VWS V14.01,2013-01-13 06:26:00,
2013-01-13 00:30:00,33.5,32.2,29.79,WNW,293,3.0,12.0,95,0.01,,OVC016,0.00,VWS V14.01,2013-01-13 06:30:00,
2013-01-13 00:31:00,33.5,32.2,29.78,NNE,18,3.0,4.0,95,0.00,,-RA,0.00,VWS V14.01,2013-01-13 06:31:00,
2013-01-13 00:36:00,33.5,32.0,29.78,NNW,344,4.0,7.0,94,0.00,,-RA,0.00,VWS V14.01,2013-01-13 06:36:00,
2013-01-13 00:41:00,33.4,32.1,29.78,NW,311,9.0,9.0,95,0.00,,OVC012,0.00,VWS V14.01,2013-01-13 06:41:00,
2013-01-13 00:46:00,33.3,31.8,29.78,NW,306,3.0,9.0,94,0.00,,OVC012,0.00,VWS V14.01,2013-01-13 06:46:00,
2013-01-13 00:51:00,33.2,31.7,29.78,North,349,1.0,11.0,94,0.00,,OVC012,0.00,VWS V14.01,2013-01-13 06:51:00,
2013-01-13 00:56:00,33.2,31.7,29.79,North,355,1.0,11.0,94,0.00,,OVC012,0.00,VWS V14.01,2013-01-13 06:56:00,
2013-01-13 01:00:00,33.1,31.6,29.80,NW,305,5.0,11.0,94,0.00,,OVC016,0.00,VWS V14.01,2013-01-13 07:00:00,
2013-01-13 01:01:00,33.1,31.6,29.80,North,5,4.0,5.0,94,0.00,,OVC012,0.00,VWS V14.01,2013-01-13 07:01:00,
2013-01-13 01:06:00,33.0,31.5,29.79,NNW,344,4.0,7.0,94,0.00,,OVC012,0.00,VWS V14.01,2013-01-13 07:06:00,
2013-01-13 01:11:00,33.0,31.5,29.80,NNW,338,4.0,11.0,94,0.00,,OVC012,0.00,VWS V14.01,2013-01-13 07:11:00,
2013-01-13 01:17:00,33.0,31.5,29.81,NW,314,6.0,11.0,94,0.00,,OVC012,0.00,VWS V14.01,2013-01-13 07:17:00,
2013-01-13 01:22:00,32.9,31.4,29.82,WNW,292,5.0,11.0,94,0.00,,OVC012,0.00,VWS V14.01,2013-01-13 07:22:00,
2013-01-13 01:27:00,32.9,31.4,29.82,WNW,288,4.0,11.0,94,0.00,,OVC012,0.00,VWS V14.01,2013-01-13 07:27:00,
2013-01-13 01:30:00,32.9,31.1,29.82,WNW,299,2.0,11.0,93,0.00,,OVC016,0.00,VWS V14.01,2013-01-13 07:30:00,
2013-01-13 01:32:00,32.9,31.4,29.82,NW,307,5.0,7.0,94,0.00,,OVC012,0.00,VWS V14.01,2013-01-13 07:32:00,
2013-01-13 01:37:00,32.9,31.1,29.83,NNW,333,5.0,10.0,93,0.00,,OVC012,0.00,VWS V14.01,2013-01-13 07:37:00,
2013-01-13 01:42:00,32.9,31.4,29.82,West,281,4.0,10.0,94,0.00,,OVC014,0.00,VWS V14.01,2013-01-13 07:42:00,
2013-01-13 01:47:00,32.8,31.0,29.82,NW,306,2.0,10.0,93,0.00,,OVC014,0.00,VWS V14.01,2013-01-13 07:47:00,
2013-01-13 01:52:00,32.8,31.0,29.81,NW,324,4.0,10.0,93,0.00,,OVC014,0.00,VWS V14.01,2013-01-13 07:52:00,
2013-01-13 01:57:00,32.8,31.0,29.82,NW,312,3.0,10.0,93,0.00,,OVC014,0.00,VWS V14.01,2013-01-13 07:57:00,
2013-01-13 02:00:00,32.8,31.0,29.82,NW,315,5.0,10.0,93,0.00,,OVC016,0.00,VWS V14.01,2013-01-13 08:00:00,
2013-01-13 02:03:00,32.7,30.9,29.83,NNW,346,5.0,8.0,93,0.00,,OVC014,0.00,VWS V14.01,2013-01-13 08:03:00,
2013-01-13 02:08:00,32.7,30.9,29.82,NNW,340,2.0,8.0,93,0.00,,OVC014,0.00,VWS V14.01,2013-01-13 08:08:00,
2013-01-13 02:13:00,32.7,30.9,29.82,NW,313,9.0,10.0,93,0.00,,OVC014,0.00,VWS V14.01,2013-01-13 08:13:00,
2013-01-13 02:18:00,32.6,30.8,29.83,NW,310,6.0,10.0,93,0.00,,OVC014,0.00,VWS V14.01,2013-01-13 08:18:00,
2013-01-13 02:23:00,32.6,30.8,29.83,NNW,331,5.0,10.0,93,0.00,,OVC014,0.00,VWS V14.01,2013-01-13 08:23:00,
2013-01-13 02:28:00,32.5,30.7,29.83,WNW,298,4.0,10.0,93,0.00,,OVC014,0.00,VWS V14.01,2013-01-13 08:28:00,
2013-01-13 02:30:00,32.5,30.7,29.83,NW,319,11.0,11.0,93,0.00,,OVC016,0.00,VWS V14.01,2013-01-13 08:30:00,
2013-01-13 02:33:00,32.5,30.7,29.84,NW,310,4.0,12.0,93,0.00,,OVC014,0.00,VWS V14.01,2013-01-13 08:33:00,
2013-01-13 02:39:00,32.5,30.7,29.84,NNW,331,6.0,12.0,93,0.00,,OVC014,0.00,VWS V14.01,2013-01-13 08:39:00,
2013-01-13 02:44:00,32.5,30.7,29.84,WNW,294,6.0,12.0,93,0.00,,OVC012,0.00,VWS V14.01,2013-01-13 08:44:00,
2013-01-13 02:49:00,32.5,30.7,29.83,North,9,6.0,12.0,93,0.00,,OVC012,0.00,VWS V14.01,2013-01-13 08:49:00,
2013-01-13 02:54:00,32.5,30.7,29.83,NW,315,5.0,12.0,93,0.00,,OVC012,0.00,VWS V14.01,2013-01-13 08:54:00,
2013-01-13 02:59:00,32.5,30.7,29.84,NNW,335,7.0,13.0,93,0.00,,OVC012,0.00,VWS V14.01,2013-01-13 08:59:00,
2013-01-13 03:00:00,32.5,30.7,29.84,NNW,346,5.0,13.0,93,0.00,,OVC016,0.00,VWS V14.01,2013-01-13 09:00:00,
2013-01-13 03:04:00,32.6,30.8,29.85,NW,309,3.0,12.0,93,0.00,,OVC012,0.00,VWS V14.01,2013-01-13 09:04:00,
2013-01-13 03:10:00,32.6,30.8,29.86,NW,308,5.0,12.0,93,0.00,,OVC012,0.00,VWS V14.01,2013-01-13 09:10:00,
2013-01-13 03:15:00,32.6,30.8,29.85,North,5,1.0,12.0,93,0.00,,OVC012,0.00,VWS V14.01,2013-01-13 09:15:00,
2013-01-13 03:20:00,32.7,30.9,29.85,NW,312,2.0,12.0,93,0.00,,OVC012,0.00,VWS V14.01,2013-01-13 09:20:00,
2013-01-13 03:25:00,32.7,30.9,29.86,NNW,338,12.0,12.0,93,0.00,,OVC012,0.00,VWS V14.01,2013-01-13 09:25:00,
2013-01-13 03:30:00,32.8,31.0,29.86,NW,321,6.0,6.0,93,0.00,,OVC012,0.00,VWS V14.01,2013-01-13 09:30:00,
2013-01-13 03:35:00,32.8,31.0,29.85,NW,319,5.0,7.0,93,0.00,,OVC012,0.00,VWS V14.01,2013-01-13 09:35:00,
2013-01-13 03:40:00,32.8,31.0,29.85,North,351,4.0,9.0,93,0.00,,OVC012,0.00,VWS V14.01,2013-01-13 09:40:00,
2013-01-13 03:45:00,32.8,31.0,29.85,NNW,333,8.0,12.0,93,0.00,,OVC012,0.00,VWS V14.01,2013-01-13 09:45:00,
2013-01-13 03:51:00,32.8,31.0,29.86,NNW,331,2.0,12.0,93,0.00,,OVC012,0.00,VWS V14.01,2013-01-13 09:51:00,
2013-01-13 03:56:00,32.8,30.7,29.87,West,268,6.0,12.0,92,0.00,,OVC012,0.00,VWS V14.01,2013-01-13 09:56:00,
2013-01-13 04:00:00,32.7,30.6,29.86,NE,38,6.0,12.0,92,0.00,,OVC016,0.00,VWS V14.01,2013-01-13 10:00:00,
2013-01-13 04:01:00,32.7,30.6,29.86,NNW,339,8.0,8.0,92,0.00,,OVC012,0.00,VWS V14.01,2013-01-13 10:01:00,
2013-01-13 04:06:00,32.6,30.5,29.85,NNE,15,4.0,8.0,92,0.00,,OVC012,0.00,VWS V14.01,2013-01-13 10:06:00,
2013-01-13 04:11:00,32.6,30.5,29.85,NW,323,6.0,10.0,92,0.00,,OVC012,0.00,VWS V14.01,2013-01-13 10:11:00,
2013-01-13 04:16:00,32.5,30.4,29.85,NNE,12,6.0,10.0,92,0.00,,OVC012,0.00,VWS V14.01,2013-01-13 10:16:00,
2013-01-13 04:21:00,32.5,30.4,29.85,NW,318,4.0,10.0,92,0.00,,OVC012,0.00,VWS V14.01,2013-01-13 10:21:00,
2013-01-13 04:26:00,32.4,30.3,29.86,NNW,338,5.0,10.0,92,0.00,,OVC012,0.00,VWS V14.01,2013-01-13 10:26:00,
2013-01-13 04:30:00,32.4,30.3,29.86,WNW,302,5.0,12.0,92,0.00,,OVC016,0.00,VWS V14.01,2013-01-13 10:30:00,
2013-01-13 04:31:00,32.4,30.3,29.85,North,5,3.0,5.0,92,0.00,,OVC012,0.00,VWS V14.01,2013-01-13 10:31:00,
2013-01-13 04:36:00,32.3,30.2,29.85,NNE,20,8.0,13.0,92,0.00,,OVC012,0.00,VWS V14.01,2013-01-13 10:36:00,
2013-01-13 04:42:00,32.0,29.7,29.86,North,355,8.0,16.0,91,0.00,,OVC012,0.00,VWS V14.01,2013-01-13 10:42:00,
2013-01-13 04:47:00,31.8,29.5,29.88,NW,311,5.0,16.0,91,0.00,,OVC012,0.00,VWS V14.01,2013-01-13 10:47:00,
2013-01-13 04:52:00,31.7,29.4,29.86,NNW,330,3.0,16.0,91,0.00,,OVC012,0.00,VWS V14.01,2013-01-13 10:52:00,
2013-01-13 04:57:00,31.6,29.5,29.87,North,360,7.0,16.0,92,0.00,,OVC012,0.00,VWS V14.01,2013-01-13 10:57:00,
2013-01-13 05:00:00,31.6,29.5,29.86,NNW,344,3.0,16.0,92,0.00,,OVC016,0.00,VWS V14.01,2013-01-13 11:00:00,
2013-01-13 05:02:00,31.6,29.5,29.87,North,349,3.0,4.0,92,0.00,,OVC012,0.00,VWS V14.01,2013-01-13 11:02:00,
2013-01-13 05:07:00,31.6,29.5,29.86,NNE,17,2.0,6.0,92,0.00,,OVC012,0.00,VWS V14.01,2013-01-13 11:07:00,
2013-01-13 05:12:00,31.6,29.5,29.88,NW,319,5.0,8.0,92,0.00,,OVC012,0.00,VWS V14.01,2013-01-13 11:12:00,
2013-01-13 05:17:00,31.6,29.5,29.89,WNW,299,2.0,8.0,92,0.00,,OVC012,0.00,VWS V14.01,2013-01-13 11:17:00,
2013-01-13 05:22:00,31.6,29.5,29.91,NW,304,8.0,12.0,92,0.00,,OVC012,0.00,VWS V14.01,2013-01-13 11:22:00,
2013-01-13 05:27:00,31.5,29.5,29.90,NW,326,2.0,12.0,92,0.00,,OVC012,0.00,VWS V14.01,2013-01-13 11:27:00,
2013-01-13 05:30:00,31.5,29.5,29.91,NW,319,1.0,12.0,92,0.00,,OVC016,0.00,VWS V14.01,2013-01-13 11:30:00,
2013-01-13 05:32:00,31.5,29.5,29.92,NNW,338,5.0,8.0,92,0.00,,OVC012,0.00,VWS V14.01,2013-01-13 11:32:00,
2013-01-13 05:38:00,31.4,29.4,29.92,NW,307,8.0,10.0,92,0.00,,OVC012,0.00,VWS V14.01,2013-01-13 11:38:00,
2013-01-13 05:43:00,31.3,29.2,29.90,NW,306,9.0,15.0,92,0.00,,OVC010,0.00,VWS V14.01,2013-01-13 11:43:00,
2013-01-13 05:48:00,31.1,29.0,29.91,NW,322,10.0,15.0,92,0.00,,OVC010,0.00,VWS V14.01,2013-01-13 11:48:00,
2013-01-13 05:53:00,30.9,28.9,29.91,NNW,333,5.0,15.0,92,0.00,,OVC008,0.00,VWS V14.01,2013-01-13 11:53:00,
2013-01-13 05:58:00,30.7,28.7,29.91,WNW,302,1.0,15.0,92,0.00,,OVC008,0.00,VWS V14.01,2013-01-13 11:58:00,
2013-01-13 06:00:00,30.7,28.7,29.91,NW,306,2.0,15.0,92,0.00,,OVC016,0.00,VWS V14.01,2013-01-13 12:00:00,
2013-01-13 06:03:00,30.7,28.9,29.92,NNW,338,3.0,8.0,93,0.00,,OVC008,0.00,VWS V14.01,2013-01-13 12:03:00,
2013-01-13 06:08:00,30.7,28.9,29.94,NNW,342,2.0,8.0,93,0.00,,OVC008,0.00,VWS V14.01,2013-01-13 12:08:00,
2013-01-13 06:13:00,30.6,28.8,29.95,North,350,5.0,11.0,93,0.00,,OVC008,0.00,VWS V14.01,2013-01-13 12:13:00,
2013-01-13 06:18:00,30.5,28.5,29.93,NNW,327,14.0,14.0,92,0.00,,OVC008,0.00,VWS V14.01,2013-01-13 12:18:00,
2013-01-13 06:23:00,30.2,28.2,29.92,WNW,285,5.0,15.0,92,0.00,,OVC008,0.00,VWS V14.01,2013-01-13 12:23:00,
2013-01-13 06:28:00,30.1,28.1,29.94,NNW,343,9.0,15.0,92,0.00,,OVC008,0.00,VWS V14.01,2013-01-13 12:28:00,
2013-01-13 06:30:00,30.1,28.1,29.94,North,9,10.0,15.0,92,0.00,,OVC016,0.00,VWS V14.01,2013-01-13 12:30:00,
2013-01-13 06:34:00,29.9,27.6,29.93,North,351,12.0,12.0,91,0.00,,OVC008,0.00,VWS V14.01,2013-01-13 12:34:00,
2013-01-13 06:39:00,29.7,27.7,29.95,North,350,2.0,12.0,92,0.00,,OVC008,0.00,VWS V14.01,2013-01-13 12:39:00,
2013-01-13 06:44:00,29.6,27.3,29.96,North,349,4.0,12.0,91,0.00,,OVC008,0.00,VWS V14.01,2013-01-13 12:44:00,
2013-01-13 06:49:00,29.6,27.6,29.97,NNW,342,10.0,12.0,92,0.00,,OVC008,0.00,VWS V14.01,2013-01-13 12:49:00,
2013-01-13 06:54:00,29.6,27.6,29.98,NW,316,5.0,12.0,92,0.00,,OVC008,0.00,VWS V14.01,2013-01-13 12:54:00,
2013-01-13 06:59:00,29.5,27.5,29.96,NW,315,5.0,12.0,92,0.00,,OVC008,0.00,VWS V14.01,2013-01-13 12:59:00,
2013-01-13 07:00:00,29.5,27.5,29.96,WNW,302,5.0,12.0,92,0.00,,OVC016,0.00,VWS V14.01,2013-01-13 13:00:00,
2013-01-13 07:04:00,29.4,27.1,29.94,North,355,5.0,10.0,91,0.00,,OVC008,0.00,VWS V14.01,2013-01-13 13:04:00,
2013-01-13 07:09:00,29.3,27.3,29.93,NNW,333,7.0,10.0,92,0.00,,OVC008,0.00,VWS V14.01,2013-01-13 13:09:00,
2013-01-13 07:14:00,29.2,27.2,29.93,WNW,284,11.0,16.0,92,0.00,,OVC008,0.00,VWS V14.01,2013-01-13 13:14:00,
2013-01-13 07:20:00,29.1,27.1,29.94,West,266,8.0,16.0,92,0.00,,OVC008,0.00,VWS V14.01,2013-01-13 13:20:00,
2013-01-13 07:25:00,29.1,27.1,29.93,NW,315,3.0,16.0,92,0.00,,OVC008,0.00,VWS V14.01,2013-01-13 13:25:00,
2013-01-13 07:30:00,29.0,26.7,29.94,NNW,342,7.0,16.0,91,0.00,,OVC008,0.00,VWS V14.01,2013-01-13 13:30:00,
2013-01-13 07:35:00,28.8,26.5,29.93,WNW,288,9.0,12.0,91,0.00,,OVC008,0.00,VWS V14.01,2013-01-13 13:35:00,
2013-01-13 07:40:00,28.5,26.2,29.91,North,349,6.0,15.0,91,0.00,,OVC008,0.00,VWS V14.01,2013-01-13 13:40:00,
2013-01-13 07:45:00,28.3,26.0,29.92,NNW,348,7.0,15.0,91,0.00,,OVC008,0.00,VWS V14.01,2013-01-13 13:45:00,
2013-01-13 07:50:00,28.3,26.0,29.91,North,355,2.0,15.0,91,0.00,,OVC008,0.00,VWS V14.01,2013-01-13 13:50:00,
2013-01-13 07:55:00,28.1,25.8,29.93,NNW,336,3.0,15.0,91,0.00,,OVC008,0.00,VWS V14.01,2013-01-13 13:55:00,
2013-01-13 08:00:00,28.1,25.8,29.94,NW,314,5.0,15.0,91,0.00,,OVC016,0.00,VWS V14.01,2013-01-13 14:00:00,
2013-01-13 08:01:00,28.1,25.8,29.94,WNW,289,4.0,7.0,91,0.00,,OVC008,0.00,VWS V14.01,2013-01-13 14:01:00,
2013-01-13 08:06:00,28.0,25.7,29.94,NNW,328,9.0,11.0,91,0.00,,OVC008,0.00,VWS V14.01,2013-01-13 14:06:00,
2013-01-13 08:11:00,27.9,25.6,29.96,NW,319,2.0,11.0,91,0.00,,OVC008,0.00,VWS V14.01,2013-01-13 14:11:00,
2013-01-13 08:16:00,27.9,25.6,29.96,NNW,327,0.0,11.0,91,0.00,,OVC008,0.00,VWS V14.01,2013-01-13 14:16:00,
2013-01-13 08:21:00,27.9,25.6,29.97,NNW,338,6.0,11.0,91,0.00,,OVC008,0.00,VWS V14.01,2013-01-13 14:21:00,
2013-01-13 08:26:00,27.9,25.6,29.98,NW,325,1.0,11.0,91,0.00,,OVC008,0.00,VWS V14.01,2013-01-13 14:26:00,
2013-01-13 08:30:00,27.9,25.6,29.98,WNW,288,1.0,11.0,91,0.00,,OVC016,0.00,VWS V14.01,2013-01-13 14:30:00,
2013-01-13 08:31:00,27.9,25.6,29.97,NNW,346,3.0,10.0,91,0.00,,OVC008,0.00,VWS V14.01,2013-01-13 14:31:00,
2013-01-13 08:36:00,27.9,25.6,29.97,NNW,329,3.0,10.0,91,0.00,,OVC008,0.00,VWS V14.01,2013-01-13 14:36:00,
2013-01-13 08:41:00,27.9,25.6,29.99,WNW,300,5.0,10.0,91,0.00,,OVC010,0.00,VWS V14.01,2013-01-13 14:41:00,
2013-01-13 08:47:00,28.0,25.7,30.00,NW,315,3.0,10.0,91,0.00,,OVC010,0.00,VWS V14.01,2013-01-13 14:47:00,
2013-01-13 08:52:00,28.0,25.7,30.00,NW,325,5.0,10.0,91,0.00,,OVC010,0.00,VWS V14.01,2013-01-13 14:52:00,
2013-01-13 08:57:00,28.0,25.5,29.99,West,271,6.0,11.0,90,0.00,,OVC010,0.00,VWS V14.01,2013-01-13 14:57:00,
2013-01-13 09:00:00,27.9,25.4,30.00,WNW,290,6.0,11.0,90,0.00,,OVC016,0.00,VWS V14.01,2013-01-13 15:00:00,
2013-01-13 09:02:00,27.9,25.4,30.01,West,271,5.0,7.0,90,0.00,,OVC010,0.00,VWS V14.01,2013-01-13 15:02:00,
2013-01-13 09:07:00,27.8,25.0,30.02,WNW,297,1.0,11.0,89,0.00,,OVC010,0.00,VWS V14.01,2013-01-13 15:07:00,
2013-01-13 09:12:00,27.8,25.2,30.02,WNW,300,0.0,11.0,90,0.00,,OVC010,0.00,VWS V14.01,2013-01-13 15:12:00,
2013-01-13 09:17:00,27.8,25.2,30.03,North,355,6.0,11.0,90,0.00,,OVC010,0.00,VWS V14.01,2013-01-13 15:17:00,
2013-01-13 09:22:00,27.7,25.2,30.02,North,9,8.0,11.0,90,0.00,,OVC010,0.00,VWS V14.01,2013-01-13 15:22:00,
2013-01-13 09:27:00,27.7,25.2,30.04,NW,305,5.0,11.0,90,0.00,,OVC010,0.00,VWS V14.01,2013-01-13 15:27:00,
2013-01-13 09:30:00,27.7,25.2,30.03,NNW,333,2.0,11.0,90,0.00,,OVC016,0.00,VWS V14.01,2013-01-13 15:30:00,
2013-01-13 09:33:00,27.7,24.9,30.01,North,350,9.0,9.0,89,0.00,,OVC010,0.00,VWS V14.01,2013-01-13 15:33:00,
2013-01-13 09:38:00,27.6,24.8,30.01,NW,311,5.0,13.0,89,0.00,,OVC010,0.00,VWS V14.01,2013-01-13 15:38:00,
2013-01-13 09:43:00,27.5,24.7,30.01,West,259,3.0,13.0,89,0.00,,OVC010,0.00,VWS V14.01,2013-01-13 15:43:00,
2013-01-13 09:48:00,27.4,24.3,30.02,NNW,329,13.0,15.0,88,0.00,,OVC010,0.00,VWS V14.01,2013-01-13 15:48:00,
2013-01-13 09:53:00,27.2,24.1,29.99,NNW,341,9.0,17.0,88,0.00,,OVC012,0.00,VWS V14.01,2013-01-13 15:53:00,
2013-01-13 09:58:00,27.2,24.4,30.00,NNW,340,13.0,17.0,89,0.00,,OVC012,0.00,VWS V14.01,2013-01-13 15:58:00,
2013-01-13 10:00:00,27.2,24.1,30.00,NW,319,9.0,17.0,88,0.00,,OVC016,0.00,VWS V14.01,2013-01-13 16:00:00,
2013-01-13 10:03:00,27.2,24.4,30.01,NW,321,5.0,11.0,89,0.00,,OVC012,0.00,VWS V14.01,2013-01-13 16:03:00,
2013-01-13 10:08:00,27.1,23.8,30.01,NNW,333,6.0,18.0,87,0.00,,OVC012,0.00,VWS V14.01,2013-01-13 16:08:00,
2013-01-13 10:13:00,27.1,23.8,30.01,NW,309,7.0,18.0,87,0.00,,OVC012,0.00,VWS V14.01,2013-01-13 16:13:00,
2013-01-13 10:19:00,27.1,23.8,30.02,NW,311,4.0,18.0,87,0.00,,OVC012,0.00,VWS V14.01,2013-01-13 16:19:00,
2013-01-13 10:24:00,27.2,24.1,30.01,NW,326,4.0,18.0,88,0.00,,OVC012,0.00,VWS V14.01,2013-01-13 16:24:00,
2013-01-13 10:29:00,27.2,24.1,30.01,NNW,327,2.0,18.0,88,0.00,,OVC012,0.00,VWS V14.01,2013-01-13 16:29:00,
2013-01-13 10:30:00,27.2,24.1,30.01,WNW,302,3.0,18.0,88,0.00,,OVC016,0.00,VWS V14.01,2013-01-13 16:30:00,
2013-01-13 10:34:00,27.2,24.1,30.02,NW,319,12.0,13.0,88,0.00,,OVC012,0.00,VWS V14.01,2013-01-13 16:34:00,
2013-01-13 10:39:00,27.1,23.8,30.04,NNW,343,8.0,14.0,87,0.00,,OVC012,0.00,VWS V14.01,2013-01-13 16:39:00,
2013-01-13 10:44:00,27.1,23.8,30.02,NNE,17,6.0,14.0,87,0.00,,,0.00,VWS V14.01,2013-01-13 16:44:00,
2013-01-13 10:49:00,27.1,23.8,30.02,NNW,347,5.0,14.0,87,0.00,,,0.00,VWS V14.01,2013-01-13 16:49:00,
2013-01-13 10:54:00,27.1,23.8,30.02,NW,313,7.0,14.0,87,0.00,,,0.00,VWS V14.01,2013-01-13 16:54:00,
2013-01-13 10:59:00,27.1,23.8,30.02,North,355,8.0,15.0,87,0.00,,,0.00,VWS V14.01,2013-01-13 16:59:00,
2013-01-13 11:00:00,27.1,23.8,30.02,NW,319,6.0,15.0,87,0.00,,OVC016,0.00,VWS V14.01,2013-01-13 17:00:00,
2013-01-13 11:05:00,27.0,23.6,30.01,NNW,338,10.0,13.0,87,0.00,,,0.00,VWS V14.01,2013-01-13 17:05:00,
2013-01-13 11:10:00,27.0,23.6,30.01,WNW,300,1.0,13.0,87,0.00,,,0.00,VWS V14.01,2013-01-13 17:10:00,
2013-01-13 11:15:00,27.1,23.8,30.01,North,355,7.0,15.0,87,0.00,,,0.00,VWS V14.01,2013-01-13 17:15:00,
2013-01-13 11:20:00,27.4,24.0,30.02,NNW,335,4.0,15.0,87,0.00,,,0.00,VWS V14.01,2013-01-13 17:20:00,
2013-01-13 11:25:00,27.6,24.2,30.00,WNW,294,6.0,15.0,87,0.00,,,0.00,VWS V14.01,2013-01-13 17:25:00,
2013-01-13 11:30:00,27.9,24.3,30.00,West,281,6.0,15.0,86,0.00,,,0.00,VWS V14.01,2013-01-13 17:30:00,
2013-01-13 11:35:00,28.0,24.1,30.01,WNW,282,5.0,13.0,85,0.00,,,0.00,VWS V14.01,2013-01-13 17:35:00,
2013-01-13 11:40:00,28.1,24.2,30.02,NNW,328,3.0,13.0,85,0.00,,OVC022,0.00,VWS V14.01,2013-01-13 17:40:00,
2013-01-13 11:45:00,28.0,23.8,30.03,NW,321,5.0,15.0,84,0.00,,OVC022,0.00,VWS V14.01,2013-01-13 17:45:00,
2013-01-13 11:50:00,27.9,23.7,30.03,NW,306,2.0,15.0,84,0.00,,OVC022,0.00,VWS V14.01,2013-01-13 17:50:00,
2013-01-13 11:55:00,27.9,23.7,30.03,NW,317,5.0,15.0,84,0.00,,OVC022,0.00,VWS V14.01,2013-01-13 17:55:00,
2013-01-13 12:00:00,27.9,23.4,30.02,West,273,7.0,7.0,83,0.00,,OVC022,0.00,VWS V14.01,2013-01-13 18:00:00,
2013-01-13 12:06:00,27.9,23.4,30.02,NW,311,11.0,13.0,83,0.00,,OVC022,0.00,VWS V14.01,2013-01-13 18:06:00,
2013-01-13 12:11:00,27.8,23.3,30.02,NNW,332,3.0,15.0,83,0.00,,OVC022,0.00,VWS V14.01,2013-01-13 18:11:00,
2013-01-13 12:16:00,27.9,23.4,30.02,WNW,300,13.0,15.0,83,0.00,,OVC022,0.00,VWS V14.01,2013-01-13 18:16:00,
2013-01-13 12:21:00,28.1,23.6,30.02,NNW,329,4.0,15.0,83,0.00,,OVC022,0.00,VWS V14.01,2013-01-13 18:21:00,
2013-01-13 12:26:00,28.2,23.7,30.02,WNW,288,9.0,15.0,83,0.00,,OVC022,0.00,VWS V14.01,2013-01-13 18:26:00,
2013-01-13 12:30:00,28.2,23.7,30.02,NW,306,4.0,15.0,83,0.00,,OVC016,0.00,VWS V14.01,2013-01-13 18:30:00,
2013-01-13 12:31:00,28.3,23.8,30.02,West,269,3.0,6.0,83,0.00,,OVC022,0.00,VWS V14.01,2013-01-13 18:31:00,
2013-01-13 12:36:00,28.3,24.1,30.01,WNW,284,5.0,8.0,84,0.00,,OVC022,0.00,VWS V14.01,2013-01-13 18:36:00,
2013-01-13 12:41:00,28.5,24.3,30.01,NNW,342,4.0,10.0,84,0.00,,OVC024,0.00,VWS V14.01,2013-01-13 18:41:00,
2013-01-13 12:46:00,28.7,24.5,30.02,NW,324,8.0,12.0,84,0.00,,OVC024,0.00,VWS V14.01,2013-01-13 18:46:00,
2013-01-13 12:52:00,28.8,24.9,30.02,WNW,288,4.0,12.0,85,0.00,,OVC024,0.00,VWS V14.01,2013-01-13 18:52:00,
2013-01-13 12:57:00,29.1,25.2,30.02,West,277,4.0,12.0,85,0.00,,OVC024,0.00,VWS V14.01,2013-01-13 18:57:00,
2013-01-13 13:00:00,29.3,25.1,30.02,WNW,302,2.0,12.0,84,0.00,,OVC016,0.00,VWS V14.01,2013-01-13 19:00:00,
2013-01-13 13:02:00,29.4,25.5,30.02,WNW,293,12.0,12.0,85,0.00,,OVC024,0.00,VWS V14.01,2013-01-13 19:02:00,
2013-01-13 13:07:00,29.6,25.1,30.03,WNW,299,4.0,12.0,83,0.00,,OVC024,0.00,VWS V14.01,2013-01-13 19:07:00,
2013-01-13 13:12:00,29.9,25.4,30.03,WNW,303,6.0,12.0,83,0.00,,OVC024,0.00,VWS V14.01,2013-01-13 19:12:00,
2013-01-13 13:17:00,30.1,25.6,30.03,NW,325,9.0,12.0,83,0.00,,OVC024,0.00,VWS V14.01,2013-01-13 19:17:00,
2013-01-13 13:22:00,30.3,25.5,30.03,West,265,7.0,14.0,82,0.00,,OVC024,0.00,VWS V14.01,2013-01-13 19:22:00,
2013-01-13 13:27:00,30.4,25.6,30.04,NW,309,6.0,16.0,82,0.00,,OVC024,0.00,VWS V14.01,2013-01-13 19:27:00,
2013-01-13 13:30:00,30.5,25.4,30.04,WNW,283,4.0,16.0,81,0.00,,OVC016,0.00,VWS V14.01,2013-01-13 19:30:00,
2013-01-13 13:32:00,30.6,25.8,30.04,NW,323,2.0,5.0,82,0.00,,OVC024,0.00,VWS V14.01,2013-01-13 19:32:00,
2013-01-13 13:38:00,30.9,26.4,30.04,WNW,302,5.0,7.0,83,0.00,,OVC024,0.00,VWS V14.01,2013-01-13 19:38:00,
2013-01-13 13:53:00,31.5,26.0,30.05,NW,306,2.0,2.0,80,0.00,,OVC016,0.00,VWS V14.01,2013-01-13 19:53:00,
2013-01-13 13:58:00,31.7,25.9,30.05,NNW,333,9.0,15.0,79,0.00,,OVC016,0.00,VWS V14.01,2013-01-13 19:58:00,
2013-01-13 14:00:00,34.6,26.5,30.08,WNW,284,12.0,15.0,72,0.00,,CLR,0.00,VWS V14.01,2013-01-13 20:00:00,
2013-01-13 14:03:00,31.8,26.6,30.05,NW,311,1.0,7.0,81,0.00,,OVC016,0.00,VWS V14.01,2013-01-13 20:03:00,
2013-01-13 14:08:00,32.5,26.7,30.05,WNW,290,5.0,13.0,79,0.00,,OVC016,0.00,VWS V14.01,2013-01-13 20:08:00,
2013-01-13 14:13:00,33.1,26.7,30.05,NW,305,12.0,13.0,77,0.00,,OVC016,0.00,VWS V14.01,2013-01-13 20:13:00,
2013-01-13 14:18:00,33.3,26.9,30.06,WNW,297,1.0,14.0,77,0.00,,OVC016,0.00,VWS V14.01,2013-01-13 20:18:00,
2013-01-13 14:23:00,33.2,26.5,30.06,NW,311,8.0,14.0,76,0.00,,OVC016,0.00,VWS V14.01,2013-01-13 20:23:00,
2013-01-13 14:28:00,33.0,26.3,30.06,NW,304,9.0,14.0,76,0.00,,OVC016,0.00,VWS V14.01,2013-01-13 20:28:00,
2013-01-13 14:30:00,32.9,24.5,30.10,WNW,283,5.0,19.0,71,0.00,,CLR,0.00,VWS V14.01,2013-01-13 20:30:00,
2013-01-13 14:33:00,33.2,26.5,30.07,NNW,329,10.0,12.0,76,0.00,,OVC016,0.00,VWS V14.01,2013-01-13 20:33:00,
2013-01-13 14:39:00,33.6,26.9,30.07,West,278,2.0,12.0,76,0.00,,OVC016,0.00,VWS V14.01,2013-01-13 20:39:00,
2013-01-13 14:44:00,34.1,27.0,30.07,WNW,299,7.0,13.0,75,0.00,,OVC016,0.00,VWS V14.01,2013-01-13 20:44:00,
2013-01-13 14:49:00,34.2,26.8,30.07,NW,308,1.0,15.0,74,0.00,,OVC016,0.00,VWS V14.01,2013-01-13 20:49:00,
2013-01-13 14:54:00,34.4,27.0,30.08,WNW,288,9.0,15.0,74,0.00,,OVC021,0.00,VWS V14.01,2013-01-13 20:54:00,
2013-01-13 14:59:00,34.6,26.5,30.08,West,269,4.0,15.0,72,0.00,,OVC021,0.00,VWS V14.01,2013-01-13 20:59:00,
2013-01-13 15:00:00,32.4,23.0,30.12,WNW,302,5.0,16.0,68,0.00,,CLR,0.00,VWS V14.01,2013-01-13 21:00:00,
2013-01-13 15:04:00,34.2,26.1,30.08,NW,326,3.0,12.0,72,0.00,,OVC021,0.00,VWS V14.01,2013-01-13 21:04:00,
2013-01-13 15:09:00,34.0,25.9,30.09,NNW,338,9.0,14.0,72,0.00,,OVC021,0.00,VWS V14.01,2013-01-13 21:09:00,
2013-01-13 15:14:00,33.8,25.4,30.09,NNW,333,5.0,16.0,71,0.00,,OVC021,0.00,VWS V14.01,2013-01-13 21:14:00,
2013-01-13 15:19:00,33.3,24.6,30.09,WNW,302,6.0,19.0,70,0.00,,OVC021,0.00,VWS V14.01,2013-01-13 21:19:00,
2013-01-13 15:24:00,33.1,24.0,30.09,NW,319,6.0,19.0,69,0.00,,OVC021,0.00,VWS V14.01,2013-01-13 21:24:00,
2013-01-13 15:30:00,33.0,24.6,30.10,NW,323,7.0,19.0,71,0.00,,OVC021,0.00,VWS V14.01,2013-01-13 21:30:00,
2013-01-13 15:35:00,32.9,23.9,30.10,North,351,10.0,16.0,69,0.00,,OVC021,0.00,VWS V14.01,2013-01-13 21:35:00,
2013-01-13 15:40:00,32.8,24.1,30.10,NNE,15,4.0,16.0,70,0.00,,SCT021,0.00,VWS V14.01,2013-01-13 21:40:00,
2013-01-13 15:45:00,32.6,23.2,30.11,WNW,300,3.0,16.0,68,0.00,,SCT021,0.00,VWS V14.01,2013-01-13 21:45:00,
2013-01-13 15:50:00,32.4,23.0,30.11,NW,315,7.0,16.0,68,0.00,,SCT021,0.00,VWS V14.01,2013-01-13 21:50:00,
2013-01-13 15:55:00,32.4,23.4,30.11,NNW,342,7.0,16.0,69,0.00,,SCT021,0.00,VWS V14.01,2013-01-13 21:55:00,
2013-01-13 16:00:00,32.4,23.0,30.12,NW,315,11.0,16.0,68,0.00,,SCT021,0.00,VWS V14.01,2013-01-13 22:00:00,
2013-01-13 16:05:00,32.1,22.4,30.12,NNW,348,3.0,16.0,67,0.00,,SCT021,0.00,VWS V14.01,2013-01-13 22:05:00,
2013-01-13 16:11:00,31.8,22.5,30.12,NW,307,4.0,16.0,68,0.00,,SCT021,0.00,VWS V14.01,2013-01-13 22:11:00,
2013-01-13 16:16:00,31.5,22.9,30.12,NW,318,10.0,16.0,70,0.00,,SCT021,0.00,VWS V14.01,2013-01-13 22:16:00,
2013-01-13 16:21:00,31.3,22.7,30.12,NW,325,2.0,16.0,70,0.00,,SCT021,0.00,VWS V14.01,2013-01-13 22:21:00,
2013-01-13 16:26:00,31.1,22.1,30.12,NNW,336,10.0,16.0,69,0.00,,SCT021,0.00,VWS V14.01,2013-01-13 22:26:00,
2013-01-13 16:30:00,27.6,20.7,30.14,WNW,286,4.0,11.0,75,0.01,,CLR,0.01,VWS V14.01,2013-01-13 22:30:00,
2013-01-13 16:31:00,30.8,21.5,30.12,NNW,338,3.0,11.0,68,0.00,,SCT021,0.00,VWS V14.01,2013-01-13 22:31:00,
2013-01-13 16:36:00,30.4,21.8,30.12,NW,319,1.0,13.0,70,0.00,,SCT021,0.00,VWS V14.01,2013-01-13 22:36:00,
2013-01-13 16:41:00,30.1,21.5,30.12,WNW,294,3.0,13.0,70,0.00,,CLR,0.00,VWS V14.01,2013-01-13 22:41:00,
2013-01-13 16:46:00,29.8,21.6,30.12,WSW,252,7.0,13.0,71,0.00,,CLR,0.00,VWS V14.01,2013-01-13 22:46:00,
2013-01-13 16:51:00,29.6,21.4,30.13,NNW,330,8.0,13.0,71,0.00,,CLR,0.00,VWS V14.01,2013-01-13 22:51:00,
2013-01-13 16:57:00,29.3,21.1,30.13,NW,306,5.0,13.0,71,0.00,,CLR,0.00,VWS V14.01,2013-01-13 22:57:00,
2013-01-13 17:00:00,26.2,19.7,30.15,NW,310,3.0,14.0,76,0.01,,CLR,0.01,VWS V14.01,2013-01-13 23:00:00,
2013-01-13 17:02:00,28.9,20.7,30.13,NNW,333,8.0,9.0,71,0.00,,CLR,0.00,VWS V14.01,2013-01-13 23:02:00,
2013-01-13 17:07:00,28.6,20.7,30.13,NNW,328,10.0,11.0,72,0.00,,CLR,0.00,VWS V14.01,2013-01-13 23:07:00,
2013-01-13 17:12:00,28.3,20.4,30.13,NW,309,3.0,11.0,72,0.00,,CLR,0.00,VWS V14.01,2013-01-13 23:12:00,
2013-01-13 17:17:00,28.1,20.6,30.14,North,5,3.0,11.0,73,0.00,,CLR,0.00,VWS V14.01,2013-01-13 23:17:00,
2013-01-13 17:22:00,27.9,20.7,30.14,NNW,340,9.0,11.0,74,0.01,,CLR,0.01,VWS V14.01,2013-01-13 23:22:00,
2013-01-13 17:27:00,27.7,20.8,30.14,NNE,29,2.0,11.0,75,0.01,,CLR,0.01,VWS V14.01,2013-01-13 23:27:00,
2013-01-13 17:30:00,25.2,19.3,30.17,NW,319,4.0,12.0,78,0.01,,CLR,0.01,VWS V14.01,2013-01-13 23:30:00,
2013-01-13 17:32:00,27.5,20.3,30.14,NNW,334,8.0,8.0,74,0.01,,CLR,0.01,VWS V14.01,2013-01-13 23:32:00,
2013-01-13 17:38:00,27.2,20.3,30.14,WNW,302,0.0,14.0,75,0.01,,CLR,0.01,VWS V14.01,2013-01-13 23:38:00,
2013-01-13 17:43:00,27.0,20.1,30.14,NNW,338,7.0,14.0,75,0.01,,CLR,0.01,VWS V14.01,2013-01-13 23:43:00,
2013-01-13 17:48:00,26.7,19.9,30.15,WNW,299,3.0,14.0,75,0.01,,CLR,0.01,VWS V14.01,2013-01-13 23:48:00,
2013-01-13 17:53:00,26.5,19.7,30.15,NNW,327,9.0,14.0,75,0.01,,CLR,0.01,VWS V14.01,2013-01-13 23:53:00,
2013-01-13 17:58:00,26.3,19.8,30.15,North,350,2.0,14.0,76,0.01,,CLR,0.01,VWS V14.01,2013-01-13 23:58:00,
2013-01-13 18:00:00,24.4,19.1,30.17,NNW,335,4.0,9.0,80,0.00,,CLR,0.01,VWS V14.01,2013-01-14 00:00:00,
2013-01-13 18:03:00,26.1,19.6,30.15,NNW,348,6.0,12.0,76,0.01,,CLR,0.01,VWS V14.01,2013-01-14 00:03:00,
2013-01-13 18:08:00,26.0,19.5,30.15,WNW,299,4.0,12.0,76,0.01,,CLR,0.01,VWS V14.01,2013-01-14 00:08:00,
2013-01-13 18:13:00,25.8,19.6,30.16,WNW,294,8.0,12.0,77,0.01,,CLR,0.01,VWS V14.01,2013-01-14 00:13:00,
2013-01-13 18:19:00,25.6,19.4,30.16,NNW,343,9.0,12.0,77,0.01,,CLR,0.01,VWS V14.01,2013-01-14 00:19:00,
2013-01-13 18:24:00,25.4,19.5,30.16,NW,323,4.0,12.0,78,0.01,,CLR,0.01,VWS V14.01,2013-01-14 00:24:00,
2013-01-13 18:29:00,25.3,19.4,30.17,NNW,336,7.0,12.0,78,0.01,,CLR,0.01,VWS V14.01,2013-01-14 00:29:00,
2013-01-13 18:30:00,23.6,18.9,30.17,NNW,346,2.0,8.0,82,0.00,,CLR,0.01,VWS V14.01,2013-01-14 00:30:00,
2013-01-13 18:34:00,25.1,19.2,30.17,NNW,341,5.0,7.0,78,0.00,,CLR,0.01,VWS V14.01,2013-01-14 00:34:00,
2013-01-13 18:39:00,24.9,19.0,30.17,North,355,2.0,8.0,78,0.00,,CLR,0.01,VWS V14.01,2013-01-14 00:39:00,
2013-01-13 18:44:00,24.8,19.2,30.17,NNW,340,3.0,9.0,79,0.00,,CLR,0.01,VWS V14.01,2013-01-14 00:44:00,
2013-01-13 18:49:00,24.7,19.1,30.17,WNW,294,5.0,9.0,79,0.00,,CLR,0.01,VWS V14.01,2013-01-14 00:49:00,
2013-01-13 18:54:00,24.5,19.2,30.17,NNW,327,1.0,9.0,80,0.00,,CLR,0.01,VWS V14.01,2013-01-14 00:54:00,
2013-01-13 18:59:00,24.4,19.1,30.17,WNW,300,5.0,9.0,80,0.00,,CLR,0.01,VWS V14.01,2013-01-14 00:59:00,
2013-01-13 19:00:00,23.0,18.9,30.18,North,355,5.0,10.0,84,0.00,,CLR,0.01,VWS V14.01,2013-01-14 01:00:00,
2013-01-13 19:05:00,24.3,19.0,30.17,NNW,332,5.0,7.0,80,0.00,,CLR,0.01,VWS V14.01,2013-01-14 01:05:00,
2013-01-13 19:10:00,24.2,19.2,30.18,NW,311,4.0,7.0,81,0.00,,CLR,0.01,VWS V14.01,2013-01-14 01:10:00,
2013-01-13 19:15:00,24.0,19.0,30.17,NNW,329,5.0,7.0,81,0.00,,CLR,0.01,VWS V14.01,2013-01-14 01:15:00,
2013-01-13 19:20:00,23.9,18.9,30.17,NW,313,2.0,8.0,81,0.00,,CLR,0.01,VWS V14.01,2013-01-14 01:20:00,
2013-01-13 19:25:00,23.7,19.0,30.17,NW,304,4.0,8.0,82,0.00,,CLR,0.01,VWS V14.01,2013-01-14 01:25:00,
2013-01-13 19:30:00,23.6,18.9,30.17,NNW,346,2.0,8.0,82,0.00,,CLR,0.01,VWS V14.01,2013-01-14 01:30:00,
2013-01-13 19:35:00,23.5,19.1,30.18,NNW,327,5.0,6.0,83,0.00,,CLR,0.01,VWS V14.01,2013-01-14 01:35:00,
2013-01-13 19:40:00,23.4,19.0,30.18,West,277,4.0,6.0,83,0.00,,CLR,0.01,VWS V14.01,2013-01-14 01:40:00,
2013-01-13 19:45:00,23.3,18.9,30.18,NNW,338,3.0,7.0,83,0.00,,CLR,0.01,VWS V14.01,2013-01-14 01:45:00,
2013-01-13 19:50:00,23.2,18.8,30.18,NW,317,4.0,8.0,83,0.00,,CLR,0.01,VWS V14.01,2013-01-14 01:50:00,
2013-01-13 19:56:00,23.1,19.0,30.18,NNW,334,9.0,9.0,84,0.00,,CLR,0.01,VWS V14.01,2013-01-14 01:56:00,
2013-01-13 20:00:00,21.8,18.0,30.20,NNW,336,4.0,6.0,85,0.00,,CLR,0.01,VWS V14.01,2013-01-14 02:00:00,
2013-01-13 20:01:00,23.0,18.9,30.18,WNW,301,2.0,5.0,84,0.00,,CLR,0.01,VWS V14.01,2013-01-14 02:01:00,
2013-01-13 20:06:00,22.9,18.8,30.18,NNW,334,2.0,6.0,84,0.00,,CLR,0.01,VWS V14.01,2013-01-14 02:06:00,
2013-01-13 20:11:00,22.9,18.8,30.18,NNW,347,3.0,6.0,84,0.00,,CLR,0.01,VWS V14.01,2013-01-14 02:11:00,
2013-01-13 20:16:00,22.7,18.6,30.19,NW,311,3.0,6.0,84,0.00,,CLR,0.01,VWS V14.01,2013-01-14 02:16:00,
2013-01-13 20:21:00,22.6,18.5,30.19,NW,325,5.0,6.0,84,0.00,,CLR,0.01,VWS V14.01,2013-01-14 02:21:00,
2013-01-13 20:26:00,22.5,18.4,30.19,WNW,301,3.0,6.0,84,0.00,,CLR,0.01,VWS V14.01,2013-01-14 02:26:00,
2013-01-13 20:30:00,21.3,17.8,30.22,NW,323,0.0,6.0,86,0.00,,CLR,0.01,VWS V14.01,2013-01-14 02:30:00,
2013-01-13 20:31:00,22.4,18.3,30.19,NW,310,1.0,5.0,84,0.00,,CLR,0.01,VWS V14.01,2013-01-14 02:31:00,
2013-01-13 20:36:00,22.3,18.2,30.19,North,5,1.0,5.0,84,0.00,,CLR,0.01,VWS V14.01,2013-01-14 02:36:00,
2013-01-13 20:41:00,22.2,18.4,30.19,NW,323,3.0,5.0,85,0.00,,CLR,0.01,VWS V14.01,2013-01-14 02:41:00,
2013-01-13 20:46:00,22.1,18.3,30.20,NW,319,1.0,5.0,85,0.00,,CLR,0.01,VWS V14.01,2013-01-14 02:46:00,
2013-01-13 20:52:00,22.0,18.2,30.20,WNW,298,2.0,5.0,85,0.00,,CLR,0.01,VWS V14.01,2013-01-14 02:52:00,
2013-01-13 20:57:00,21.9,18.1,30.20,NW,323,1.0,5.0,85,0.00,,CLR,0.01,VWS V14.01,2013-01-14 02:57:00,
2013-01-13 21:00:00,20.9,17.6,30.24,NW,304,1.0,7.0,87,0.00,,CLR,0.01,VWS V14.01,2013-01-14 03:00:00,
2013-01-13 21:02:00,21.8,18.3,30.20,NW,313,3.0,4.0,86,0.00,,CLR,0.01,VWS V14.01,2013-01-14 03:02:00,
2013-01-13 21:07:00,21.7,18.2,30.20,NW,304,3.0,5.0,86,0.00,,CLR,0.01,VWS V14.01,2013-01-14 03:07:00,
2013-01-13 21:12:00,21.6,18.1,30.20,NW,313,2.0,5.0,86,0.00,,CLR,0.01,VWS V14.01,2013-01-14 03:12:00,
2013-01-13 21:17:00,21.5,18.0,30.21,NNW,333,1.0,5.0,86,0.00,,CLR,0.01,VWS V14.01,2013-01-14 03:17:00,
2013-01-13 21:22:00,21.4,17.9,30.22,NW,325,4.0,5.0,86,0.00,,CLR,0.01,VWS V14.01,2013-01-14 03:22:00,
2013-01-13 21:27:00,21.3,17.8,30.22,NW,315,2.0,5.0,86,0.00,,CLR,0.01,VWS V14.01,2013-01-14 03:27:00,
2013-01-13 21:30:00,20.2,17.2,30.25,WNW,296,0.0,3.0,88,0.00,,CLR,0.01,VWS V14.01,2013-01-14 03:30:00,
2013-01-13 21:32:00,21.3,17.8,30.22,NW,323,7.0,7.0,86,0.00,,CLR,0.01,VWS V14.01,2013-01-14 03:32:00,
2013-01-13 21:37:00,21.2,17.9,30.23,NW,316,3.0,7.0,87,0.00,,CLR,0.01,VWS V14.01,2013-01-14 03:37:00,
2013-01-13 21:42:00,21.2,17.9,30.23,NW,322,3.0,7.0,87,0.00,,CLR,0.01,VWS V14.01,2013-01-14 03:42:00,
2013-01-13 21:48:00,21.1,17.8,30.24,NW,314,1.0,7.0,87,0.00,,CLR,0.01,VWS V14.01,2013-01-14 03:48:00,
2013-01-13 21:53:00,21.0,17.8,30.24,WNW,288,1.0,7.0,87,0.00,,CLR,0.01,VWS V14.01,2013-01-14 03:53:00,
2013-01-13 21:58:00,20.9,17.6,30.24,NW,316,0.0,7.0,87,0.00,,CLR,0.01,VWS V14.01,2013-01-14 03:58:00,
2013-01-13 22:00:00,19.7,17.0,30.26,NW,312,0.0,4.0,89,0.00,,CLR,0.01,VWS V14.01,2013-01-14 04:00:00,
2013-01-13 22:03:00,20.8,17.5,30.24,NW,304,2.0,3.0,87,0.00,,CLR,0.01,VWS V14.01,2013-01-14 04:03:00,
2013-01-13 22:08:00,20.7,17.5,30.24,NW,321,0.0,3.0,87,0.00,,CLR,0.01,VWS V14.01,2013-01-14 04:08:00,
2013-01-13 22:13:00,20.7,17.5,30.25,NW,320,2.0,3.0,87,0.00,,CLR,0.01,VWS V14.01,2013-01-14 04:13:00,
2013-01-13 22:18:00,20.5,17.2,30.25,NW,315,0.0,3.0,87,0.00,,CLR,0.01,VWS V14.01,2013-01-14 04:18:00,
2013-01-13 22:23:00,20.3,17.3,30.25,NW,311,0.0,3.0,88,0.00,,CLR,0.01,VWS V14.01,2013-01-14 04:23:00,
2013-01-13 22:28:00,20.2,17.2,30.25,NW,316,1.0,3.0,88,0.00,,CLR,0.01,VWS V14.01,2013-01-14 04:28:00,
2013-01-13 22:30:00,19.4,16.7,30.27,WNW,298,2.0,4.0,89,0.00,,CLR,0.01,VWS V14.01,2013-01-14 04:30:00,
2013-01-13 22:33:00,20.1,17.1,30.25,NW,315,0.0,1.0,88,0.00,,CLR,0.01,VWS V14.01,2013-01-14 04:33:00,
2013-01-13 22:39:00,20.0,17.3,30.25,WNW,302,0.0,2.0,89,0.00,,CLR,0.01,VWS V14.01,2013-01-14 04:39:00,
2013-01-13 22:44:00,19.9,17.2,30.26,NW,306,0.0,2.0,89,0.00,,CLR,0.01,VWS V14.01,2013-01-14 04:44:00,
2013-01-13 22:49:00,19.8,17.1,30.26,WNW,301,2.0,2.0,89,0.00,,CLR,0.01,VWS V14.01,2013-01-14 04:49:00,
2013-01-13 22:54:00,19.7,17.0,30.26,NW,321,0.0,4.0,89,0.00,,CLR,0.01,VWS V14.01,2013-01-14 04:54:00,
2013-01-13 22:59:00,19.7,17.0,30.26,NW,317,2.0,4.0,89,0.00,,CLR,0.01,VWS V14.01,2013-01-14 04:59:00,
2013-01-13 23:00:00,19.7,17.0,30.26,NW,312,1.0,4.0,89,0.00,,CLR,0.01,VWS V14.01,2013-01-14 05:00:00,
2013-01-13 23:01:00,19.7,17.0,30.26,WNW,298,2.0,2.0,89,0.00,,CLR,0.01,VWS V14.01,2013-01-14 05:01:00,
2013-01-13 23:03:00,19.7,17.0,30.26,NNW,331,1.0,2.0,89,0.00,,CLR,0.01,VWS V14.01,2013-01-14 05:03:00,
2013-01-13 23:04:00,19.7,17.0,30.26,NW,323,1.0,2.0,89,0.00,,CLR,0.01,VWS V14.01,2013-01-14 05:04:00,
2013-01-13 23:09:00,19.6,16.9,30.26,NW,313,0.0,2.0,89,0.00,,CLR,0.01,VWS V14.01,2013-01-14 05:09:00,
2013-01-13 23:14:00,19.5,16.8,30.26,NW,309,0.0,4.0,89,0.00,,CLR,0.01,VWS V14.01,2013-01-14 05:14:00,
2013-01-13 23:19:00,19.5,16.8,30.27,NW,314,2.0,4.0,89,0.00,,CLR,0.01,VWS V14.01,2013-01-14 05:19:00,
2013-01-13 23:24:00,19.4,16.7,30.26,NW,308,0.0,4.0,89,0.00,,CLR,0.01,VWS V14.01,2013-01-14 05:24:00,
2013-01-13 23:29:00,19.4,16.7,30.27,NW,317,0.0,4.0,89,0.00,,CLR,0.01,VWS V14.01,2013-01-14 05:29:00,
2013-01-13 23:30:00,18.9,16.2,30.28,WNW,300,2.0,6.0,89,0.00,,CLR,0.00,VWS V14.01,2013-01-14 05:30:00,
2013-01-13 23:34:00,19.3,16.6,30.27,NW,321,4.0,4.0,89,0.00,,CLR,0.01,VWS V14.01,2013-01-14 05:34:00,
2013-01-13 23:39:00,19.3,16.6,30.27,WNW,288,2.0,5.0,89,0.00,,CLR,0.01,VWS V14.01,2013-01-14 05:39:00,
2013-01-13 23:45:00,19.3,16.6,30.27,NNW,345,0.0,5.0,89,0.00,,CLR,0.01,VWS V14.01,2013-01-14 05:45:00,
2013-01-13 23:50:00,19.3,16.6,30.28,NW,317,3.0,5.0,89,0.00,,CLR,0.01,VWS V14.01,2013-01-14 05:50:00,
2013-01-13 23:55:00,19.2,16.5,30.27,NW,314,1.0,5.0,89,0.00,,CLR,0.01,VWS V14.01,2013-01-14 05:55:00,